Weather History for KGTF - October, 2012

Change the Weather History Date:

Monday, October 1, 2012

  Actual Average Record
Temperature  
Mean Temperature 60 °F 50 °F  
Max Temperature 80 °F 64 °F 91 °F (1992)
Min Temperature 40 °F 37 °F 22 °F (1950)
Degree Days  
Heating Degree Days 5 15  
Month to date heating degree days 5 15  
Since 1 July heating degree days 182 422  
Cooling Degree Days 0 0  
Month to date cooling degree days 0 0  
Year to date cooling degree days 484 297  
Growing Degree Days 10 (Base 50)    
Moisture  
Dew Point 33 °F    
Average Humidity 47    
Maximum Humidity 76    
Minimum Humidity 17    
Precipitation  
Precipitation 0.00 in 0.04 in 0.45 in (1914)
Month to date precipitation 0.00 0.04  
Year to date precipitation 9.79 12.79  
Snow  
Snow 0.00 in 0.10 in 1.50 in (1898)
Month to date snowfall 0.0 0.1  
Since 1 July snowfall 0.0 1.6  
Since 1 September snowfall 0.0 1.3  
Snow Depth 0.00 in    
Sea Level Pressure  
Sea Level Pressure 30.04 in    
Wind  
Wind Speed 17 mph (SW)    
Max Wind Speed 29 mph    
Max Gust Speed 36 mph    
Visibility 10 miles    
Events      
T = Trace of Precipitation, MM = Missing Value Source: NWS Daily Summary

Daily Weather History Graph

Daily Weather History Graph

Search for Another Location

Airport or City:

Trip Planner

Search our weather history database for the weather conditions in past years. The results will help you decide how hot, cold, wet, or windy it might be!

Date:

Astronomy

Oct. 01, 2012 Rise Set
Actual Time 7:25 AM MDT 7:03 PM MDT
Civil Twilight 6:54 AM MDT 7:34 PM MDT
Nautical Twilight 6:18 AM MDT 8:09 PM MDT
Astronomical Twilight 5:42 AM MDT 8:46 PM MDT
Moon 7:31 PM MDT (10/1) 9:08 AM MDT (10/1)
Length of Visible Light 12h 39m
Length of Day
11h 38m
Full, 97% of the Moon is Illuminated
Oct 1
Full
Oct 8
Last Quarter
Oct 15
New
Oct 21
First Quarter
Oct 29
Full

Hourly Weather History & Observations

Time (MDT) Temp. Windchill Dew Point Humidity Pressure Visibility Wind Dir Wind Speed Gust Speed Precip Events Conditions
12:53 AM 45.0 °F 43.5 °F 36.0 °F 71% 30.29 in 10.0 mi SSW 3.5 mph - N/A   Clear
1:53 AM 46.0 °F - 36.0 °F 68% 30.26 in 10.0 mi Calm Calm - N/A   Clear
2:53 AM 46.0 °F 41.4 °F 37.0 °F 71% 30.25 in 10.0 mi SSW 9.2 mph - N/A   Clear
3:53 AM 42.1 °F 37.1 °F 35.1 °F 76% 30.25 in 10.0 mi SSW 8.1 mph - N/A   Clear
4:53 AM 43.0 °F 37.7 °F 36.0 °F 76% 30.25 in 10.0 mi SW 9.2 mph - N/A   Clear
5:53 AM 42.1 °F 36.6 °F 35.1 °F 76% 30.23 in 10.0 mi SSW 9.2 mph - N/A   Clear
6:53 AM 48.0 °F - 36.0 °F 63% 30.20 in 10.0 mi South 11.5 mph - N/A   Clear
7:53 AM 50.0 °F - 35.1 °F 57% 30.20 in 10.0 mi South 11.5 mph - N/A   Clear
8:53 AM 57.0 °F - 34.0 °F 42% 30.18 in 10.0 mi SSW 13.8 mph - N/A   Clear
9:53 AM 63.0 °F - 33.1 °F 33% 30.14 in 10.0 mi SSW 16.1 mph - N/A   Clear
10:53 AM 68.0 °F - 32.0 °F 26% 30.11 in 7.0 mi SW 20.7 mph - N/A   Clear
11:53 AM 71.6 °F - 30.2 °F 22% 30.11 in 8.0 mi SW 19.6 mph 26.5 mph N/A   Clear
12:53 PM 75.0 °F - 30.9 °F 20% 30.04 in 10.0 mi SSW 19.6 mph 27.6 mph N/A   Clear
1:53 PM 77.0 °F - 30.9 °F 19% 30.00 in 10.0 mi SW 21.9 mph 29.9 mph N/A   Clear
2:53 PM 78.1 °F - 30.9 °F 18% 29.96 in 10.0 mi SW 25.3 mph 31.1 mph N/A   Clear
3:53 PM 79.0 °F - 30.0 °F 17% 29.93 in 10.0 mi SSW 23.0 mph 31.1 mph N/A   Clear
4:53 PM 78.1 °F - 30.9 °F 18% 29.90 in 10.0 mi SW 23.0 mph 27.6 mph N/A   Clear
5:53 PM 73.9 °F - 30.0 °F 20% 29.89 in 10.0 mi SW 24.2 mph - N/A   Clear
6:53 PM 72.0 °F - 30.0 °F 21% 29.87 in 10.0 mi SSW 15.0 mph - N/A   Clear
7:53 PM 71.1 °F - 30.0 °F 22% 29.84 in 10.0 mi SW 13.8 mph - N/A   Clear
8:53 PM 73.0 °F - 30.0 °F 20% 29.80 in 10.0 mi SW 24.2 mph 29.9 mph N/A   Clear
9:53 PM 71.1 °F - 30.9 °F 23% 29.77 in 10.0 mi SW 25.3 mph 31.1 mph N/A   Clear
10:53 PM 71.1 °F - 30.9 °F 23% 29.74 in 10.0 mi SW 24.2 mph 28.8 mph N/A   Clear
11:53 PM 69.1 °F - 30.9 °F 24% 29.71 in 10.0 mi SW 21.9 mph - N/A   Clear